Regional Weather Roundup
Issued by NWS

Home | Current Version | Previous Version | Graphics & Text | Print | Product List | Glossary On
Versions: 1 2 3 4 5 6 7 8 9 10 11 12 13 14 15 16 17 18 19 20 21 22 23 24 25 26 27 28 29 30 31 32 33 34 35 36 37 38 39 40 41 42 43 44 45 46 47 48 49 50
000
ASUS45 KCYS 181510
RWRWY

WYOMING REGIONAL WEATHER ROUNDUP
NATIONAL WEATHER SERVICE CHEYENNE WY
800 AM MST SAT NOV 18 2017

NOTE:  "FAIR" INDICATES FEW OR NO CLOUDS BELOW 12,000 FEET
WITH NO SIGNIFICANT WEATHER AND/OR OBSTRUCTIONS TO VISIBILITY.

WYZ001-181600-
YELLOWSTONE NATIONAL PARK

CITY           SKY/WX    TMP DP  RH WIND       PRES   REMARKS
LK YELLOWSTONE   N/A      5   2  87 VRB3      30.28R
W YELLOWSTONE  NOT AVBL

$$
WYZ002>013-054>058-071-098>099-181600-
NORTHERN WYOMING

CITY           SKY/WX    TMP DP  RH WIND       PRES   REMARKS
JACKSON        FAIR       5   2  87 NE5       30.34R WCI  -4
CODY           FAIR      32   9  38 W16G30    30.17R WCI  21
GREYBULL       FAIR      23  18  81 E8        30.22R WCI  14
WORLAND        FAIR      21  18  88 SW10      30.21R WCI  10
SHERIDAN       FAIR      27  16  63 NE5       30.16R WCI  22
BUFFALO        FAIR      24   6  46 W5        30.15R WCI  18
GILLETTE       FAIR      28  15  58 W10       30.15R WCI  19
HULETT         FAIR      30  19  64 SW12      30.14R WCI  21
NEWCASTLE      FAIR      27  18  69 NW8       30.16R WCI  18

$$
WYZ014>020-022>026-101>103-181600-
CENTRAL WYOMING

CITY           SKY/WX    TMP DP  RH WIND       PRES   REMARKS
BIG PINEY      FAIR       3  -1  83 W6        30.31R WCI  -8
PINEDALE       FAIR      12   7  79 NW6       30.31R WCI   3
DUBOIS         FAIR      18   5  57 NW20      30.22R WCI   1
LANDER         FAIR      22   6  50 W9        30.20R WCI  12
RIVERTON       FAIR      24   6  46 SW9       30.19R WCI  14
CASPER         FAIR      21  13  71 SW22      30.20R WCI   5
DOUGLAS        FAIR      20  16  84 NW6       30.21R WCI  12

$$
WYZ021-027>030-104>119-181600-
SOUTHERN WYOMING

CITY           SKY/WX    TMP DP  RH WIND       PRES   REMARKS
EVANSTON       FAIR      11   9  92 SW9       30.37R WCI  -2
FORT BRIDGER   FAIR      15  12  90 SW15      30.37S WCI  -1
ROCK SPRINGS   FAIR      17  12  80 SW18      30.34R WCI   1
DIXON          LGT SNOW   6   3  87 CALM      30.41R
RAWLINS        FAIR      19  13  77 SW20G30   30.28R WCI   3
SARATOGA       FAIR      19  12  73 SW18G25   30.30R WCI   4
LARAMIE        FAIR      16   7  67 W13G18    30.18R WCI   2
CHEYENNE       FAIR      23  11  60 SW5       30.19R WCI  17
TORRINGTON     FAIR      29  20  69 VRB3      30.21R
PINE BLUFFS    FAIR      27  16  63 MISG      30.21R

$$



USA.gov is the U.S. government's official web portal to all federal, state and local government web resources and services.